Погода в Правдинске

Россия / Калининградская область     54°26′46″N   21°01′07″E
темп.,
°C
ветер,
м/с
пор.,
м/с
влажн.,
%
обл.,
%
осадки,
мм/ч
давл.,
гПа
погр.,
м
14 июня, пн
пн1423:00+9сз37950 0.0 1020145
02:00+9сз34954 0.0 102156
05:00+9сз229358 0.0 102118
08:00+15всв017631 0.0 1021362
11:00+19ссз115820 0.0 1021960
14:00+21з11555 0.0 10201458
17:00+20зсз33636 0.0 10191063
20:00+17ююз11764 0.0 101811
15 июня, вт
вт1523:00+13ю35886 0.0 101868
02:00+12ююз41091100 0.0 1017192
05:00+13юз31087100 0.0 1016209
08:00+17зюз4980100 0.0 1016384
11:00+19з5677100 0.0 1016850
14:00+18сз5676100 0.1 1017865
17:00+17сз466594 0.0 1017854
20:00+14ссз248448 0.0 101890
16 июня, ср
ср1623:00+9зсз229452 0.0 101920
02:00+9з22924 0.0 101914
05:00+9юз22945 0.0 102022
08:00+15зюз237849 0.0 1020393
11:00+19зюз226176 0.0 10211112
14:00+21зсз11567 0.0 10211547
17:00+20ссз216018 0.0 10211349
20:00+15ссв34884 0.0 1021113
17 июня, чт
чт1723:00+12всв22900 0.0 102214
02:00+11юв22934 0.0 102321
05:00+11ююв34920 0.0 102365
08:00+17юв34750 0.0 1024299
11:00+21юв34634 0.0 10241003
14:00+23юв34575 0.0 10231332
17:00+23юв35650 0.0 1022976
20:00+19вюв37790 0.0 1022117
18 июня, пт
пт1823:00+15ююв36880 0.0 102293
02:00+13ююв35920 0.0 102285
05:00+13ююв35910 0.0 102286
08:00+19ююв46760 0.0 1022289
11:00+24ююв57670 0.0 1021761
14:00+27ююв58605 0.0 10201522
17:00+28ююв48675 0.0 10191547
20:00+23юв38850 0.0 1019186